Time,TemperatureF,DewpointF,PressureIn,WindDirection,WindDirectionDegrees,WindSpeedMPH,WindSpeedGustMPH,Humidity,HourlyPrecipIn,Conditions,Clouds,dailyrainin,SoftwareType,DateUTC
2013-02-11 00:01:00,31.8,15.2,30.08,NNW,344,2.0,5.0,50,0.00,,,0.00,WUHU216DAVISVP2,2013-02-11 08:01:00,
2013-02-11 00:06:00,31.8,14.7,30.08,NNW,344,3.0,5.0,49,0.00,,,0.00,WUHU216DAVISVP2,2013-02-11 08:06:00,
2013-02-11 00:11:00,32.2,15.1,30.09,NNW,344,3.0,5.0,49,0.00,,,0.00,WUHU216DAVISVP2,2013-02-11 08:11:00,
2013-02-11 00:16:00,32.3,15.2,30.09,NNW,344,2.0,5.0,49,0.00,,,0.00,WUHU216DAVISVP2,2013-02-11 08:16:00,
2013-02-11 00:22:00,31.6,15.0,30.09,NNW,344,0.0,5.0,50,0.00,,,0.00,WUHU216DAVISVP2,2013-02-11 08:22:00,
2013-02-11 00:28:00,31.7,15.6,30.09,NNW,344,0.0,5.0,51,0.00,,,0.00,WUHU216DAVISVP2,2013-02-11 08:28:00,
2013-02-11 00:33:00,31.7,15.1,30.09,NNW,344,3.0,3.0,50,0.00,,,0.00,WUHU216DAVISVP2,2013-02-11 08:33:00,
2013-02-11 00:38:00,31.4,15.3,30.09,NNW,344,0.0,4.0,51,0.00,,,0.00,WUHU216DAVISVP2,2013-02-11 08:38:00,
2013-02-11 00:44:00,31.5,15.4,30.09,NNW,344,3.0,4.0,51,0.00,,,0.00,WUHU216DAVISVP2,2013-02-11 08:44:00,
2013-02-11 00:49:00,31.8,15.2,30.09,NNW,344,2.0,5.0,50,0.00,,,0.00,WUHU216DAVISVP2,2013-02-11 08:49:00,
2013-02-11 00:54:00,31.8,15.2,30.09,NNW,344,2.0,5.0,50,0.00,,,0.00,WUHU216DAVISVP2,2013-02-11 08:54:00,
2013-02-11 00:59:00,31.9,14.8,30.09,NNW,344,0.0,5.0,49,0.00,,,0.00,WUHU216DAVISVP2,2013-02-11 08:59:00,
2013-02-11 01:04:00,32.5,14.9,30.09,NE,36,3.0,7.0,48,0.00,,,0.00,WUHU216DAVISVP2,2013-02-11 09:04:00,
2013-02-11 01:09:00,35.5,15.0,30.09,NNE,32,8.0,10.0,43,0.00,,,0.00,WUHU216DAVISVP2,2013-02-11 09:09:00,
2013-02-11 01:14:00,39.6,15.2,30.09,NNE,28,4.0,14.0,37,0.00,,,0.00,WUHU216DAVISVP2,2013-02-11 09:14:00,
2013-02-11 01:20:00,41.3,14.8,30.09,NE,42,5.0,14.0,34,0.00,,,0.00,WUHU216DAVISVP2,2013-02-11 09:20:00,
2013-02-11 01:26:00,42.0,14.7,30.09,NE,34,0.0,14.0,33,0.00,,,0.00,WUHU216DAVISVP2,2013-02-11 09:26:00,
2013-02-11 01:31:00,42.0,14.0,30.09,NE,34,2.0,14.0,32,0.00,,,0.00,WUHU216DAVISVP2,2013-02-11 09:31:00,
2013-02-11 01:37:00,42.1,14.8,30.09,NE,34,0.0,9.0,33,0.00,,,0.00,WUHU216DAVISVP2,2013-02-11 09:37:00,
2013-02-11 01:43:00,42.0,14.0,30.10,NE,34,2.0,6.0,32,0.00,,,0.00,WUHU216DAVISVP2,2013-02-11 09:43:00,
2013-02-11 01:48:00,42.1,14.8,30.09,NE,34,5.0,6.0,33,0.00,,,0.00,WUHU216DAVISVP2,2013-02-11 09:48:00,
2013-02-11 01:53:00,42.3,14.5,30.10,NE,42,10.0,11.0,32,0.00,,,0.00,WUHU216DAVISVP2,2013-02-11 09:53:00,
2013-02-11 01:58:00,42.9,14.3,30.10,NE,43,6.0,12.0,31,0.00,,,0.00,WUHU216DAVISVP2,2013-02-11 09:58:00,
2013-02-11 02:03:00,43.1,14.5,30.10,NNE,24,6.0,14.0,31,0.00,,,0.00,WUHU216DAVISVP2,2013-02-11 10:03:00,
2013-02-11 02:08:00,42.8,14.2,30.10,NNE,30,1.0,14.0,31,0.00,,,0.00,WUHU216DAVISVP2,2013-02-11 10:08:00,
2013-02-11 02:14:00,42.5,13.7,30.10,NNE,30,1.0,14.0,31,0.00,,,0.00,WUHU216DAVISVP2,2013-02-11 10:14:00,
2013-02-11 02:19:00,42.4,13.7,30.10,NNE,26,8.0,10.0,31,0.00,,,0.00,WUHU216DAVISVP2,2013-02-11 10:19:00,
2013-02-11 02:24:00,42.5,13.7,30.10,NNE,19,3.0,10.0,31,0.00,,,0.00,WUHU216DAVISVP2,2013-02-11 10:24:00,
2013-02-11 02:30:00,42.5,13.7,30.09,NE,39,6.0,10.0,31,0.00,,,0.00,WUHU216DAVISVP2,2013-02-11 10:30:00,
2013-02-11 02:35:00,42.4,13.7,30.09,NE,39,9.0,10.0,31,0.00,,,0.00,WUHU216DAVISVP2,2013-02-11 10:35:00,
2013-02-11 02:40:00,42.3,13.6,30.09,NE,38,6.0,10.0,31,0.00,,,0.00,WUHU216DAVISVP2,2013-02-11 10:40:00,
2013-02-11 02:45:00,42.3,13.6,30.09,NNE,31,0.0,9.0,31,0.00,,,0.00,WUHU216DAVISVP2,2013-02-11 10:45:00,
2013-02-11 02:51:00,42.1,14.1,30.09,NNE,31,0.0,9.0,32,0.00,,,0.00,WUHU216DAVISVP2,2013-02-11 10:51:00,
2013-02-11 02:56:00,41.6,13.7,30.09,NNE,31,0.0,8.0,32,0.00,,,0.00,WUHU216DAVISVP2,2013-02-11 10:56:00,
2013-02-11 03:02:00,41.3,14.1,30.09,NE,46,0.0,11.0,33,0.00,,,0.00,WUHU216DAVISVP2,2013-02-11 11:02:00,
2013-02-11 03:08:00,41.0,14.1,30.09,NE,46,0.0,11.0,33,0.00,,,0.00,WUHU216DAVISVP2,2013-02-11 11:08:00,
2013-02-11 03:13:00,40.4,13.5,30.09,NE,46,0.0,11.0,33,0.00,,,0.00,WUHU216DAVISVP2,2013-02-11 11:13:00,
2013-02-11 03:20:00,39.7,13.6,30.09,NE,46,0.0,3.0,34,0.00,,,0.00,WUHU216DAVISVP2,2013-02-11 11:20:00,
2013-02-11 03:25:00,38.8,13.4,30.09,NE,46,0.0,1.0,35,0.00,,,0.00,WUHU216DAVISVP2,2013-02-11 11:25:00,
2013-02-11 03:30:00,37.5,12.9,30.09,NE,46,0.0,1.0,36,0.00,,,0.00,WUHU216DAVISVP2,2013-02-11 11:30:00,
2013-02-11 03:36:00,36.3,12.9,30.09,NE,46,0.0,0.0,38,0.00,,,0.00,WUHU216DAVISVP2,2013-02-11 11:36:00,
2013-02-11 03:41:00,36.0,13.2,30.10,NE,46,1.0,3.0,39,0.00,,,0.00,WUHU216DAVISVP2,2013-02-11 11:41:00,
2013-02-11 03:46:00,35.6,13.4,30.09,NE,46,0.0,3.0,40,0.00,,,0.00,WUHU216DAVISVP2,2013-02-11 11:46:00,
2013-02-11 03:52:00,35.5,13.3,30.10,NE,46,0.0,3.0,40,0.00,,,0.00,WUHU216DAVISVP2,2013-02-11 11:52:00,
2013-02-11 03:57:00,34.8,13.3,30.10,NE,46,0.0,4.0,41,0.00,,,0.00,WUHU216DAVISVP2,2013-02-11 11:57:00,
2013-02-11 04:02:00,34.7,13.2,30.10,NE,46,0.0,5.0,41,0.00,,,0.00,WUHU216DAVISVP2,2013-02-11 12:02:00,
2013-02-11 04:07:00,35.0,13.5,30.09,NE,46,0.0,5.0,41,0.00,,,0.00,WUHU216DAVISVP2,2013-02-11 12:07:00,
2013-02-11 04:12:00,34.8,13.3,30.09,NE,46,0.0,5.0,41,0.00,,,0.00,WUHU216DAVISVP2,2013-02-11 12:12:00,
2013-02-11 04:17:00,33.8,12.9,30.09,NE,46,0.0,5.0,42,0.00,,,0.00,WUHU216DAVISVP2,2013-02-11 12:17:00,
2013-02-11 04:22:00,33.5,13.2,30.09,NE,46,4.0,5.0,43,0.00,,,0.00,WUHU216DAVISVP2,2013-02-11 12:22:00,
2013-02-11 04:28:00,34.2,13.3,30.10,NE,46,1.0,5.0,42,0.00,,,0.00,WUHU216DAVISVP2,2013-02-11 12:28:00,
2013-02-11 04:34:00,34.2,13.3,30.09,NE,46,0.0,5.0,42,0.00,,,0.00,WUHU216DAVISVP2,2013-02-11 12:34:00,
2013-02-11 04:39:00,33.3,12.5,30.09,NE,46,3.0,6.0,42,0.00,,,0.00,WUHU216DAVISVP2,2013-02-11 12:39:00,
2013-02-11 04:44:00,32.4,12.8,30.10,NE,45,1.0,6.0,44,0.00,,,0.00,WUHU216DAVISVP2,2013-02-11 12:44:00,
2013-02-11 04:49:00,32.5,13.0,30.09,NE,44,2.0,6.0,44,0.00,,,0.00,WUHU216DAVISVP2,2013-02-11 12:49:00,
2013-02-11 04:55:00,32.8,13.2,30.10,NE,44,1.0,6.0,44,0.00,,,0.00,WUHU216DAVISVP2,2013-02-11 12:55:00,
2013-02-11 05:00:00,32.2,12.7,30.10,NE,44,0.0,6.0,44,0.00,,,0.00,WUHU216DAVISVP2,2013-02-11 13:00:00,
2013-02-11 05:05:00,31.5,12.1,30.09,NE,44,0.0,6.0,44,0.00,,,0.00,WUHU216DAVISVP2,2013-02-11 13:05:00,
2013-02-11 05:10:00,31.3,12.4,30.10,NE,44,0.0,3.0,45,0.00,,,0.00,WUHU216DAVISVP2,2013-02-11 13:10:00,
2013-02-11 05:15:00,31.2,11.7,30.10,NE,44,0.0,3.0,44,0.00,,,0.00,WUHU216DAVISVP2,2013-02-11 13:15:00,
2013-02-11 05:20:00,30.4,12.0,30.10,NE,44,0.0,3.0,46,0.00,,,0.00,WUHU216DAVISVP2,2013-02-11 13:20:00,
2013-02-11 05:25:00,30.3,11.4,30.10,NE,44,0.0,3.0,45,0.00,,,0.00,WUHU216DAVISVP2,2013-02-11 13:25:00,
2013-02-11 05:30:00,29.9,11.5,30.10,NE,44,0.0,3.0,46,0.00,,,0.00,WUHU216DAVISVP2,2013-02-11 13:30:00,
2013-02-11 05:35:00,29.7,11.3,30.10,NE,44,0.0,3.0,46,0.00,,,0.00,WUHU216DAVISVP2,2013-02-11 13:35:00,
2013-02-11 05:42:00,30.2,11.3,30.11,NE,44,0.0,3.0,45,0.00,,,0.00,WUHU216DAVISVP2,2013-02-11 13:42:00,
2013-02-11 05:47:00,30.6,12.2,30.11,NE,44,0.0,3.0,46,0.00,,,0.00,WUHU216DAVISVP2,2013-02-11 13:47:00,
2013-02-11 05:52:00,31.0,12.1,30.11,NE,44,0.0,6.0,45,0.00,,,0.00,WUHU216DAVISVP2,2013-02-11 13:52:00,
2013-02-11 05:57:00,31.7,12.2,30.11,NE,44,1.0,6.0,44,0.00,,,0.00,WUHU216DAVISVP2,2013-02-11 13:57:00,
2013-02-11 06:02:00,31.7,11.2,30.11,NE,44,2.0,6.0,42,0.00,,,0.00,WUHU216DAVISVP2,2013-02-11 14:02:00,
2013-02-11 06:07:00,31.2,11.1,30.11,NE,44,0.0,6.0,43,0.00,,,0.00,WUHU216DAVISVP2,2013-02-11 14:07:00,
2013-02-11 06:13:00,30.6,11.1,30.11,NE,44,2.0,4.0,44,0.00,,,0.00,WUHU216DAVISVP2,2013-02-11 14:13:00,
2013-02-11 06:18:00,30.7,11.2,30.11,NE,44,4.0,5.0,44,0.00,,,0.00,WUHU216DAVISVP2,2013-02-11 14:18:00,
2013-02-11 06:23:00,31.0,11.5,30.12,NE,44,3.0,5.0,44,0.00,,,0.00,WUHU216DAVISVP2,2013-02-11 14:23:00,
2013-02-11 06:28:00,31.0,11.5,30.12,NE,44,3.0,5.0,44,0.00,,,0.00,WUHU216DAVISVP2,2013-02-11 14:28:00,
2013-02-11 06:33:00,31.4,11.3,30.12,NE,44,3.0,5.0,43,0.00,,,0.00,WUHU216DAVISVP2,2013-02-11 14:33:00,
2013-02-11 06:38:00,30.3,10.8,30.12,NE,44,5.0,6.0,44,0.00,,,0.00,WUHU216DAVISVP2,2013-02-11 14:38:00,
2013-02-11 06:44:00,30.2,10.2,30.12,NE,44,3.0,6.0,43,0.00,,,0.00,WUHU216DAVISVP2,2013-02-11 14:44:00,
2013-02-11 06:49:00,29.3,10.4,30.13,NE,43,3.0,7.0,45,0.00,,,0.00,WUHU216DAVISVP2,2013-02-11 14:49:00,
2013-02-11 06:54:00,28.7,10.4,30.13,NE,43,4.0,7.0,46,0.00,,,0.00,WUHU216DAVISVP2,2013-02-11 14:54:00,
2013-02-11 06:59:00,28.3,11.0,30.13,NE,42,3.0,7.0,48,0.00,,,0.00,WUHU216DAVISVP2,2013-02-11 14:59:00,
2013-02-11 07:05:00,29.0,11.7,30.13,NE,40,4.0,7.0,48,0.00,,,0.00,WUHU216DAVISVP2,2013-02-11 15:05:00,
2013-02-11 07:10:00,30.0,12.1,30.13,North,5,5.0,9.0,47,0.00,,,0.00,WUHU216DAVISVP2,2013-02-11 15:10:00,
2013-02-11 07:15:00,31.1,12.6,30.14,North,5,3.0,9.0,46,0.00,,,0.00,WUHU216DAVISVP2,2013-02-11 15:15:00,
2013-02-11 07:20:00,31.4,11.8,30.14,North,5,4.0,9.0,44,0.00,,,0.00,WUHU216DAVISVP2,2013-02-11 15:20:00,
2013-02-11 07:25:00,31.1,12.1,30.14,North,5,0.0,9.0,45,0.00,,,0.00,WUHU216DAVISVP2,2013-02-11 15:25:00,
2013-02-11 07:31:00,31.9,12.3,30.14,North,5,0.0,5.0,44,0.00,,,0.00,WUHU216DAVISVP2,2013-02-11 15:31:00,
2013-02-11 07:36:00,32.4,12.8,30.14,North,5,2.0,5.0,44,0.00,,,0.00,WUHU216DAVISVP2,2013-02-11 15:36:00,
2013-02-11 07:41:00,33.2,12.9,30.15,North,5,3.0,5.0,43,0.00,,,0.00,WUHU216DAVISVP2,2013-02-11 15:41:00,
2013-02-11 07:47:00,34.4,12.9,30.15,North,5,0.0,5.0,41,0.00,,,0.00,WUHU216DAVISVP2,2013-02-11 15:47:00,
2013-02-11 07:52:00,35.3,13.2,30.15,North,5,2.0,4.0,40,0.00,,,0.00,WUHU216DAVISVP2,2013-02-11 15:52:00,
2013-02-11 07:57:00,36.5,13.1,30.16,North,5,3.0,5.0,38,0.00,,,0.00,WUHU216DAVISVP2,2013-02-11 15:57:00,
2013-02-11 08:02:00,37.9,13.1,30.16,North,5,1.0,5.0,36,0.00,,,0.00,WUHU216DAVISVP2,2013-02-11 16:02:00,
2013-02-11 08:07:00,39.3,13.0,30.16,North,5,1.0,5.0,34,0.00,,,0.00,WUHU216DAVISVP2,2013-02-11 16:07:00,
2013-02-11 08:12:00,40.4,12.6,30.17,North,5,1.0,5.0,32,0.00,,,0.00,WUHU216DAVISVP2,2013-02-11 16:12:00,
2013-02-11 08:17:00,41.2,12.6,30.16,North,5,0.0,5.0,31,0.00,,,0.00,WUHU216DAVISVP2,2013-02-11 16:17:00,
2013-02-11 08:23:00,42.1,11.9,30.16,North,5,0.0,4.0,29,0.00,,,0.00,WUHU216DAVISVP2,2013-02-11 16:23:00,
2013-02-11 08:29:00,43.2,11.3,30.16,NNE,17,3.0,9.0,27,0.00,,,0.00,WUHU216DAVISVP2,2013-02-11 16:29:00,
2013-02-11 08:35:00,44.2,10.4,30.17,NNE,19,17.0,21.0,25,0.00,,,0.00,WUHU216DAVISVP2,2013-02-11 16:35:00,
2013-02-11 08:40:00,44.5,10.7,30.17,NNE,26,19.0,21.0,25,0.00,,,0.00,WUHU216DAVISVP2,2013-02-11 16:40:00,
2013-02-11 08:45:00,44.8,10.0,30.17,NNE,13,15.0,21.0,24,0.00,,,0.00,WUHU216DAVISVP2,2013-02-11 16:45:00,
2013-02-11 08:50:00,45.0,9.3,30.17,NNE,23,17.0,23.0,23,0.00,,,0.00,WUHU216DAVISVP2,2013-02-11 16:50:00,
2013-02-11 08:55:00,44.9,9.2,30.17,NE,42,16.0,29.0,23,0.00,,,0.00,WUHU216DAVISVP2,2013-02-11 16:55:00,
2013-02-11 09:01:00,44.8,9.1,30.17,NE,36,19.0,30.0,23,0.00,,,0.00,WUHU216DAVISVP2,2013-02-11 17:01:00,
2013-02-11 09:06:00,45.0,9.3,30.17,NNE,21,18.0,30.0,23,0.00,,,0.00,WUHU216DAVISVP2,2013-02-11 17:06:00,
2013-02-11 09:13:00,45.4,9.6,30.17,NNE,17,21.0,30.0,23,0.00,,,0.00,WUHU216DAVISVP2,2013-02-11 17:13:00,
2013-02-11 09:18:00,45.2,9.5,30.17,NE,38,20.0,29.0,23,0.00,,,0.00,WUHU216DAVISVP2,2013-02-11 17:18:00,
2013-02-11 09:24:00,45.5,9.7,30.17,NNE,33,14.0,30.0,23,0.00,,,0.00,WUHU216DAVISVP2,2013-02-11 17:24:00,
2013-02-11 09:30:00,45.8,9.0,30.17,North,9,15.0,30.0,22,0.00,,,0.00,WUHU216DAVISVP2,2013-02-11 17:30:00,
2013-02-11 09:35:00,45.8,10.0,30.17,NE,37,15.0,30.0,23,0.00,,,0.00,WUHU216DAVISVP2,2013-02-11 17:35:00,
2013-02-11 09:40:00,46.1,9.3,30.17,NNE,25,22.0,28.0,22,0.00,,,0.00,WUHU216DAVISVP2,2013-02-11 17:40:00,
2013-02-11 09:45:00,46.0,9.2,30.17,NE,36,18.0,26.0,22,0.00,,,0.00,WUHU216DAVISVP2,2013-02-11 17:45:00,
2013-02-11 09:51:00,46.0,9.2,30.18,NNE,27,17.0,26.0,22,0.00,,,0.00,WUHU216DAVISVP2,2013-02-11 17:51:00,
2013-02-11 09:56:00,46.4,8.5,30.18,NNE,24,10.0,26.0,21,0.00,,,0.00,WUHU216DAVISVP2,2013-02-11 17:56:00,
2013-02-11 10:01:00,46.7,8.7,30.17,NNE,25,22.0,26.0,21,0.00,,,0.00,WUHU216DAVISVP2,2013-02-11 18:01:00,
2013-02-11 10:06:00,47.2,7.0,30.18,NNE,18,17.0,24.0,19,0.00,,,0.00,WUHU216DAVISVP2,2013-02-11 18:06:00,
2013-02-11 10:11:00,47.5,7.2,30.18,NNE,28,23.0,25.0,19,0.00,,,0.00,WUHU216DAVISVP2,2013-02-11 18:11:00,
2013-02-11 10:16:00,47.6,6.1,30.18,North,5,26.0,32.0,18,0.00,,,0.00,WUHU216DAVISVP2,2013-02-11 18:16:00,
2013-02-11 10:21:00,47.3,5.9,30.18,NNE,21,18.0,32.0,18,0.00,,,0.00,WUHU216DAVISVP2,2013-02-11 18:21:00,
2013-02-11 10:26:00,47.4,5.9,30.18,NE,43,23.0,32.0,18,0.00,,,0.00,WUHU216DAVISVP2,2013-02-11 18:26:00,
2013-02-11 10:32:00,47.8,6.3,30.18,NNE,25,13.0,32.0,18,0.00,,,0.00,WUHU216DAVISVP2,2013-02-11 18:32:00,
2013-02-11 10:37:00,48.2,5.4,30.18,North,5,21.0,28.0,17,0.00,,,0.00,WUHU216DAVISVP2,2013-02-11 18:37:00,
2013-02-11 10:43:00,48.4,5.5,30.18,North,5,16.0,28.0,17,0.00,,,0.00,WUHU216DAVISVP2,2013-02-11 18:43:00,
2013-02-11 10:48:00,48.2,5.3,30.18,NNE,26,19.0,27.0,17,0.00,,,0.00,WUHU216DAVISVP2,2013-02-11 18:48:00,
2013-02-11 10:55:00,47.9,5.1,30.18,NE,36,20.0,27.0,17,0.00,,,0.00,WUHU216DAVISVP2,2013-02-11 18:55:00,
2013-02-11 11:00:00,48.4,5.5,30.18,North,11,20.0,30.0,17,0.00,,,0.00,WUHU216DAVISVP2,2013-02-11 19:00:00,
2013-02-11 11:06:00,48.4,5.5,30.18,NNE,30,17.0,30.0,17,0.00,,,0.00,WUHU216DAVISVP2,2013-02-11 19:06:00,
2013-02-11 11:11:00,48.4,5.5,30.18,North,360,13.0,30.0,17,0.00,,,0.00,WUHU216DAVISVP2,2013-02-11 19:11:00,
2013-02-11 11:17:00,48.9,4.6,30.17,NE,36,17.0,30.0,16,0.00,,,0.00,WUHU216DAVISVP2,2013-02-11 19:17:00,
2013-02-11 11:22:00,49.4,5.0,30.17,NNE,20,26.0,27.0,16,0.00,,,0.00,WUHU216DAVISVP2,2013-02-11 19:22:00,
2013-02-11 11:27:00,49.2,4.8,30.17,NE,39,21.0,27.0,16,0.00,,,0.00,WUHU216DAVISVP2,2013-02-11 19:27:00,
2013-02-11 11:32:00,49.1,4.8,30.17,NE,35,18.0,27.0,16,0.00,,,0.00,WUHU216DAVISVP2,2013-02-11 19:32:00,
2013-02-11 11:37:00,49.3,3.5,30.17,North,9,21.0,27.0,15,0.00,,,0.00,WUHU216DAVISVP2,2013-02-11 19:37:00,
2013-02-11 11:42:00,49.5,2.2,30.17,North,11,10.0,25.0,14,0.00,,,0.00,WUHU216DAVISVP2,2013-02-11 19:42:00,
2013-02-11 11:48:00,49.9,2.5,30.16,North,5,14.0,25.0,14,0.00,,,0.00,WUHU216DAVISVP2,2013-02-11 19:48:00,
2013-02-11 11:53:00,50.1,2.6,30.16,NNE,13,19.0,25.0,14,0.00,,,0.00,WUHU216DAVISVP2,2013-02-11 19:53:00,
2013-02-11 11:58:00,50.2,1.1,30.16,NNE,32,10.0,26.0,13,0.00,,,0.00,WUHU216DAVISVP2,2013-02-11 19:58:00,
2013-02-11 12:04:00,50.3,2.8,30.16,North,360,11.0,26.0,14,0.00,,,0.00,WUHU216DAVISVP2,2013-02-11 20:04:00,
2013-02-11 12:09:00,50.5,3.0,30.15,North,355,17.0,26.0,14,0.00,,,0.00,WUHU216DAVISVP2,2013-02-11 20:09:00,
2013-02-11 12:15:00,50.3,1.2,30.15,NNE,23,18.0,26.0,13,0.00,,,0.00,WUHU216DAVISVP2,2013-02-11 20:15:00,
2013-02-11 12:20:00,50.4,1.3,30.15,NNE,20,11.0,26.0,13,0.00,,,0.00,WUHU216DAVISVP2,2013-02-11 20:20:00,
2013-02-11 12:26:00,50.7,1.5,30.15,North,351,13.0,26.0,13,0.00,,,0.00,WUHU216DAVISVP2,2013-02-11 20:26:00,
2013-02-11 12:32:00,50.9,1.6,30.14,NNE,24,14.0,23.0,13,0.00,,,0.00,WUHU216DAVISVP2,2013-02-11 20:32:00,
2013-02-11 12:37:00,51.2,1.9,30.14,North,10,23.0,25.0,13,0.00,,,0.00,WUHU216DAVISVP2,2013-02-11 20:37:00,
2013-02-11 12:42:00,51.2,1.9,30.14,NE,42,13.0,25.0,13,0.00,,,0.00,WUHU216DAVISVP2,2013-02-11 20:42:00,
2013-02-11 12:47:00,51.3,0.3,30.14,NNE,16,11.0,25.0,12,0.00,,,0.00,WUHU216DAVISVP2,2013-02-11 20:47:00,
2013-02-11 12:53:00,51.3,0.2,30.14,NNE,15,11.0,26.0,12,0.00,,,0.00,WUHU216DAVISVP2,2013-02-11 20:53:00,
2013-02-11 12:58:00,50.9,-0.1,30.14,NE,39,12.0,26.0,12,0.00,,,0.00,WUHU216DAVISVP2,2013-02-11 20:58:00,
2013-02-11 13:03:00,51.5,0.4,30.13,NNE,15,18.0,26.0,12,0.00,,,0.00,WUHU216DAVISVP2,2013-02-11 21:03:00,
2013-02-11 13:10:00,51.7,0.6,30.13,North,355,6.0,24.0,12,0.00,,,0.00,WUHU216DAVISVP2,2013-02-11 21:10:00,
2013-02-11 13:15:00,51.9,0.8,30.13,North,9,11.0,21.0,12,0.00,,,0.00,WUHU216DAVISVP2,2013-02-11 21:15:00,
2013-02-11 13:20:00,52.0,-1.1,30.13,NNE,26,18.0,21.0,11,0.00,,,0.00,WUHU216DAVISVP2,2013-02-11 21:20:00,
2013-02-11 13:25:00,51.9,-1.2,30.13,NNE,15,14.0,24.0,11,0.00,,,0.00,WUHU216DAVISVP2,2013-02-11 21:25:00,
2013-02-11 13:31:00,52.0,-1.1,30.13,North,11,8.0,24.0,11,0.00,,,0.00,WUHU216DAVISVP2,2013-02-11 21:31:00,
2013-02-11 13:37:00,52.3,-0.9,30.13,NNE,17,8.0,24.0,11,0.00,,,0.00,WUHU216DAVISVP2,2013-02-11 21:37:00,
2013-02-11 13:43:00,52.4,-0.8,30.13,NE,53,8.0,21.0,11,0.00,,,0.00,WUHU216DAVISVP2,2013-02-11 21:43:00,
2013-02-11 13:49:00,52.7,-2.6,30.13,East,81,5.0,21.0,10,0.00,,,0.00,WUHU216DAVISVP2,2013-02-11 21:49:00,
2013-02-11 13:54:00,52.4,-2.9,30.13,NNE,26,9.0,18.0,10,0.00,,,0.00,WUHU216DAVISVP2,2013-02-11 21:54:00,
2013-02-11 13:59:00,52.2,-1.0,30.13,NNE,28,19.0,21.0,11,0.00,,,0.00,WUHU216DAVISVP2,2013-02-11 21:59:00,
2013-02-11 14:04:00,52.1,-1.1,30.13,NNE,16,6.0,23.0,11,0.00,,,0.00,WUHU216DAVISVP2,2013-02-11 22:04:00,
2013-02-11 14:10:00,52.3,-2.8,30.13,NNE,26,7.0,23.0,10,0.00,,,0.00,WUHU216DAVISVP2,2013-02-11 22:10:00,
2013-02-11 14:17:00,52.6,-2.7,30.13,NNE,15,8.0,23.0,10,0.00,,,0.00,WUHU216DAVISVP2,2013-02-11 22:17:00,
2013-02-11 14:22:00,52.7,-2.6,30.13,North,360,9.0,19.0,10,0.00,,,0.00,WUHU216DAVISVP2,2013-02-11 22:22:00,
2013-02-11 14:27:00,52.7,-2.6,30.13,NNE,26,9.0,23.0,10,0.00,,,0.00,WUHU216DAVISVP2,2013-02-11 22:27:00,
2013-02-11 14:32:00,52.7,-2.5,30.13,North,5,8.0,23.0,10,0.00,,,0.00,WUHU216DAVISVP2,2013-02-11 22:32:00,
2013-02-11 14:37:00,52.6,-4.8,30.13,North,11,3.0,23.0,9,0.00,,,0.00,WUHU216DAVISVP2,2013-02-11 22:37:00,
2013-02-11 14:43:00,52.9,-2.5,30.13,NE,41,10.0,16.0,10,0.00,,,0.00,WUHU216DAVISVP2,2013-02-11 22:43:00,
2013-02-11 14:48:00,53.2,-2.3,30.13,NE,34,13.0,18.0,10,0.00,,,0.00,WUHU216DAVISVP2,2013-02-11 22:48:00,
2013-02-11 14:53:00,53.3,-2.2,30.13,NNE,17,16.0,19.0,10,0.00,,,0.00,WUHU216DAVISVP2,2013-02-11 22:53:00,
2013-02-11 14:58:00,53.3,-2.0,30.13,NE,38,9.0,19.0,10,0.00,,,0.00,WUHU216DAVISVP2,2013-02-11 22:58:00,
2013-02-11 15:04:00,53.7,-1.9,30.13,NE,41,12.0,19.0,10,0.00,,,0.00,WUHU216DAVISVP2,2013-02-11 23:04:00,
2013-02-11 15:09:00,53.7,-1.9,30.13,ENE,61,10.0,17.0,10,0.00,,,0.00,WUHU216DAVISVP2,2013-02-11 23:09:00,
2013-02-11 15:16:00,53.6,-4.2,30.13,ESE,103,4.0,15.0,9,0.00,,,0.00,WUHU216DAVISVP2,2013-02-11 23:16:00,
2013-02-11 15:22:00,53.2,-2.3,30.13,SE,145,12.0,14.0,10,0.00,,,0.00,WUHU216DAVISVP2,2013-02-11 23:22:00,
2013-02-11 15:27:00,52.9,-2.5,30.14,SE,128,10.0,14.0,10,0.00,,,0.00,WUHU216DAVISVP2,2013-02-11 23:27:00,
2013-02-11 15:32:00,52.4,-2.9,30.14,SE,139,6.0,15.0,10,0.00,,,0.00,WUHU216DAVISVP2,2013-02-11 23:32:00,
2013-02-11 15:37:00,52.4,-2.9,30.14,ESE,112,7.0,16.0,10,0.00,,,0.00,WUHU216DAVISVP2,2013-02-11 23:37:00,
2013-02-11 15:42:00,52.7,-2.6,30.14,East,96,11.0,16.0,10,0.00,,,0.00,WUHU216DAVISVP2,2013-02-11 23:42:00,
2013-02-11 15:47:00,52.3,-3.0,30.14,ESE,109,3.0,16.0,10,0.00,,,0.00,WUHU216DAVISVP2,2013-02-11 23:47:00,
2013-02-11 15:52:00,52.5,-2.8,30.14,SSE,163,5.0,16.0,10,0.00,,,0.00,WUHU216DAVISVP2,2013-02-11 23:52:00,
2013-02-11 15:57:00,52.4,-2.9,30.14,SE,134,4.0,16.0,10,0.00,,,0.00,WUHU216DAVISVP2,2013-02-11 23:57:00,
2013-02-11 16:02:00,52.1,-3.1,30.14,South,169,10.0,16.0,10,0.00,,,0.00,WUHU216DAVISVP2,2013-02-12 00:02:00,
2013-02-11 16:07:00,51.8,-1.3,30.14,ESE,102,8.0,19.0,11,0.00,,,0.00,WUHU216DAVISVP2,2013-02-12 00:07:00,
2013-02-11 16:14:00,51.9,-3.3,30.14,ESE,123,4.0,19.0,10,0.00,,,0.00,WUHU216DAVISVP2,2013-02-12 00:14:00,
2013-02-11 16:19:00,51.8,-3.3,30.14,ESE,122,5.0,19.0,10,0.00,,,0.00,WUHU216DAVISVP2,2013-02-12 00:19:00,
2013-02-11 16:24:00,51.9,-3.3,30.15,East,96,2.0,13.0,10,0.00,,,0.00,WUHU216DAVISVP2,2013-02-12 00:24:00,
2013-02-11 16:29:00,51.9,-3.1,30.15,ESE,106,10.0,11.0,10,0.00,,,0.00,WUHU216DAVISVP2,2013-02-12 00:29:00,
2013-02-11 16:34:00,51.5,-3.4,30.15,SE,129,5.0,13.0,10,0.00,,,0.00,WUHU216DAVISVP2,2013-02-12 00:34:00,
2013-02-11 16:39:00,51.1,-3.9,30.15,SE,139,8.0,19.0,10,0.00,,,0.00,WUHU216DAVISVP2,2013-02-12 00:39:00,
2013-02-11 16:45:00,50.8,-4.1,30.15,ESE,109,4.0,19.0,10,0.00,,,0.00,WUHU216DAVISVP2,2013-02-12 00:45:00,
2013-02-11 16:50:00,50.8,-4.1,30.15,SE,131,7.0,19.0,10,0.00,,,0.00,WUHU216DAVISVP2,2013-02-12 00:50:00,
2013-02-11 16:55:00,50.7,-4.2,30.15,SE,129,13.0,19.0,10,0.00,,,0.00,WUHU216DAVISVP2,2013-02-12 00:55:00,
2013-02-11 17:00:00,50.4,-4.4,30.16,SE,139,7.0,16.0,10,0.00,,,0.00,WUHU216DAVISVP2,2013-02-12 01:00:00,
2013-02-11 17:06:00,50.1,-2.6,30.16,SE,136,3.0,15.0,11,0.00,,,0.00,WUHU216DAVISVP2,2013-02-12 01:06:00,
2013-02-11 17:11:00,50.0,-2.6,30.16,SE,142,6.0,15.0,11,0.00,,,0.00,WUHU216DAVISVP2,2013-02-12 01:11:00,
2013-02-11 17:16:00,49.8,-2.7,30.16,SE,142,4.0,15.0,11,0.00,,,0.00,WUHU216DAVISVP2,2013-02-12 01:16:00,
2013-02-11 17:22:00,49.6,-2.9,30.16,SE,137,7.0,10.0,11,0.00,,,0.00,WUHU216DAVISVP2,2013-02-12 01:22:00,
2013-02-11 17:27:00,49.6,-2.9,30.16,SE,134,6.0,10.0,11,0.00,,,0.00,WUHU216DAVISVP2,2013-02-12 01:27:00,
2013-02-11 17:32:00,49.5,-3.0,30.16,SE,138,6.0,10.0,11,0.00,,,0.00,WUHU216DAVISVP2,2013-02-12 01:32:00,
2013-02-11 17:38:00,49.4,-3.2,30.16,SE,138,3.0,10.0,11,0.00,,,0.00,WUHU216DAVISVP2,2013-02-12 01:38:00,
2013-02-11 17:43:00,49.1,-3.4,30.17,SE,138,5.0,10.0,11,0.00,,,0.00,WUHU216DAVISVP2,2013-02-12 01:43:00,
2013-02-11 17:48:00,49.0,-3.5,30.17,SE,138,4.0,10.0,11,0.00,,,0.00,WUHU216DAVISVP2,2013-02-12 01:48:00,
2013-02-11 17:53:00,48.9,-3.5,30.17,SE,138,3.0,8.0,11,0.00,,,0.00,WUHU216DAVISVP2,2013-02-12 01:53:00,
2013-02-11 17:58:00,48.8,-1.7,30.17,SE,138,2.0,8.0,12,0.00,,,0.00,WUHU216DAVISVP2,2013-02-12 01:58:00,
2013-02-11 18:03:00,48.7,-3.7,30.17,SE,137,0.0,8.0,11,0.00,,,0.00,WUHU216DAVISVP2,2013-02-12 02:03:00,
2013-02-11 18:09:00,48.6,-3.8,30.17,SE,137,2.0,8.0,11,0.00,,,0.00,WUHU216DAVISVP2,2013-02-12 02:09:00,
2013-02-11 18:14:00,48.6,-3.8,30.18,SE,137,2.0,7.0,11,0.00,,,0.00,WUHU216DAVISVP2,2013-02-12 02:14:00,
2013-02-11 18:19:00,48.3,-2.1,30.18,SE,137,0.0,7.0,12,0.00,,,0.00,WUHU216DAVISVP2,2013-02-12 02:19:00,
2013-02-11 18:25:00,47.5,-2.7,30.18,SE,137,2.0,7.0,12,0.00,,,0.00,WUHU216DAVISVP2,2013-02-12 02:25:00,
2013-02-11 18:30:00,44.7,-0.2,30.18,SE,130,6.0,7.0,15,0.00,,,0.00,WUHU216DAVISVP2,2013-02-12 02:30:00,
2013-02-11 18:35:00,41.9,-1.1,30.19,NNE,15,6.0,8.0,16,0.00,,,0.00,WUHU216DAVISVP2,2013-02-12 02:35:00,
2013-02-11 18:41:00,40.2,0.0,30.19,North,355,6.0,8.0,18,0.00,,,0.00,WUHU216DAVISVP2,2013-02-12 02:41:00,
2013-02-11 18:47:00,39.1,-0.9,30.19,North,355,7.0,8.0,18,0.00,,,0.00,WUHU216DAVISVP2,2013-02-12 02:47:00,
2013-02-11 18:53:00,38.7,-0.1,30.19,North,355,7.0,8.0,19,0.00,,,0.00,WUHU216DAVISVP2,2013-02-12 02:53:00,
2013-02-11 18:58:00,38.5,-0.3,30.19,North,355,8.0,8.0,19,0.00,,,0.00,WUHU216DAVISVP2,2013-02-12 02:58:00,
2013-02-11 19:03:00,38.1,-0.6,30.20,NNW,337,6.0,8.0,19,0.00,,,0.00,WUHU216DAVISVP2,2013-02-12 03:03:00,
2013-02-11 19:08:00,38.2,-0.5,30.20,North,355,8.0,9.0,19,0.00,,,0.00,WUHU216DAVISVP2,2013-02-12 03:08:00,
2013-02-11 19:13:00,38.5,-1.4,30.20,NNW,348,6.0,9.0,18,0.00,,,0.00,WUHU216DAVISVP2,2013-02-12 03:13:00,
2013-02-11 19:18:00,38.4,-1.5,30.20,North,355,6.0,10.0,18,0.00,,,0.00,WUHU216DAVISVP2,2013-02-12 03:18:00,
2013-02-11 19:23:00,38.7,-1.2,30.20,North,349,7.0,10.0,18,0.00,,,0.00,WUHU216DAVISVP2,2013-02-12 03:23:00,
2013-02-11 19:28:00,38.3,-1.6,30.21,NNW,348,6.0,10.0,18,0.00,,,0.00,WUHU216DAVISVP2,2013-02-12 03:28:00,
2013-02-11 19:33:00,37.5,-1.1,30.21,NNW,348,4.0,10.0,19,0.00,,,0.00,WUHU216DAVISVP2,2013-02-12 03:33:00,
2013-02-11 19:38:00,36.6,-0.8,30.21,NNW,343,5.0,8.0,20,0.00,,,0.00,WUHU216DAVISVP2,2013-02-12 03:38:00,
2013-02-11 19:44:00,36.2,-1.1,30.21,NNW,343,6.0,8.0,20,0.00,,,0.00,WUHU216DAVISVP2,2013-02-12 03:44:00,
2013-02-11 19:49:00,35.7,-1.5,30.21,NNW,343,7.0,7.0,20,0.00,,,0.00,WUHU216DAVISVP2,2013-02-12 03:49:00,
2013-02-11 19:54:00,35.3,-1.9,30.22,NNW,343,6.0,8.0,20,0.00,,,0.00,WUHU216DAVISVP2,2013-02-12 03:54:00,
2013-02-11 20:00:00,35.2,-0.9,30.22,NNW,342,6.0,8.0,21,0.00,,,0.00,WUHU216DAVISVP2,2013-02-12 04:00:00,
2013-02-11 20:05:00,35.0,-1.1,30.23,NNW,340,5.0,8.0,21,0.00,,,0.00,WUHU216DAVISVP2,2013-02-12 04:05:00,
2013-02-11 20:10:00,34.5,-1.5,30.23,NNW,340,5.0,7.0,21,0.00,,,0.00,WUHU216DAVISVP2,2013-02-12 04:10:00,
2013-02-11 20:15:00,34.8,-1.3,30.23,NNW,340,5.0,7.0,21,0.00,,,0.00,WUHU216DAVISVP2,2013-02-12 04:15:00,
2013-02-11 20:20:00,34.7,-0.3,30.23,NNW,339,5.0,7.0,22,0.00,,,0.00,WUHU216DAVISVP2,2013-02-12 04:20:00,
2013-02-11 20:26:00,34.4,-1.6,30.23,NNW,337,5.0,7.0,21,0.00,,,0.00,WUHU216DAVISVP2,2013-02-12 04:26:00,
2013-02-11 20:31:00,34.5,-1.5,30.24,NNW,333,7.0,7.0,21,0.00,,,0.00,WUHU216DAVISVP2,2013-02-12 04:31:00,
2013-02-11 20:36:00,34.4,-1.6,30.24,NW,326,6.0,7.0,21,0.00,,,0.00,WUHU216DAVISVP2,2013-02-12 04:36:00,
2013-02-11 20:42:00,34.4,-0.6,30.24,NNW,327,6.0,7.0,22,0.00,,,0.00,WUHU216DAVISVP2,2013-02-12 04:42:00,
2013-02-11 20:47:00,34.5,-0.5,30.24,NNW,338,8.0,8.0,22,0.00,,,0.00,WUHU216DAVISVP2,2013-02-12 04:47:00,
2013-02-11 20:52:00,34.5,-1.5,30.25,NNW,336,4.0,9.0,21,0.00,,,0.00,WUHU216DAVISVP2,2013-02-12 04:52:00,
2013-02-11 20:57:00,33.8,-3.1,30.25,NNW,336,4.0,9.0,20,0.00,,,0.00,WUHU216DAVISVP2,2013-02-12 04:57:00,
2013-02-11 21:02:00,32.4,-3.3,30.25,NNW,336,2.0,9.0,21,0.00,,,0.00,WUHU216DAVISVP2,2013-02-12 05:02:00,
2013-02-11 21:08:00,32.5,-1.3,30.25,NNW,336,5.0,8.0,23,0.00,,,0.00,WUHU216DAVISVP2,2013-02-12 05:08:00,
2013-02-11 21:13:00,32.1,-1.6,30.25,NNW,336,4.0,6.0,23,0.00,,,0.00,WUHU216DAVISVP2,2013-02-12 05:13:00,
2013-02-11 21:18:00,31.6,-2.0,30.25,NNW,336,5.0,6.0,23,0.00,,,0.00,WUHU216DAVISVP2,2013-02-12 05:18:00,
2013-02-11 21:23:00,31.8,-1.0,30.25,NNW,336,2.0,6.0,24,0.00,,,0.00,WUHU216DAVISVP2,2013-02-12 05:23:00,
2013-02-11 21:28:00,32.0,-0.9,30.25,NNW,336,3.0,6.0,24,0.00,,,0.00,WUHU216DAVISVP2,2013-02-12 05:28:00,
2013-02-11 21:35:00,32.5,-0.4,30.25,NNW,336,5.0,6.0,24,0.00,,,0.00,WUHU216DAVISVP2,2013-02-12 05:35:00,
2013-02-11 21:40:00,32.8,-1.1,30.25,NNW,336,6.0,7.0,23,0.00,,,0.00,WUHU216DAVISVP2,2013-02-12 05:40:00,
2013-02-11 21:45:00,32.6,-1.2,30.25,NNW,336,4.0,7.0,23,0.00,,,0.00,WUHU216DAVISVP2,2013-02-12 05:45:00,
2013-02-11 21:50:00,31.9,-1.8,30.25,NNW,336,4.0,7.0,23,0.00,,,0.00,WUHU216DAVISVP2,2013-02-12 05:50:00,
2013-02-11 21:56:00,31.6,-1.2,30.26,NNW,336,0.0,7.0,24,0.00,,,0.00,WUHU216DAVISVP2,2013-02-12 05:56:00,
2013-02-11 22:01:00,30.8,-1.9,30.26,NNW,336,0.0,6.0,24,0.00,,,0.00,WUHU216DAVISVP2,2013-02-12 06:01:00,
2013-02-11 22:06:00,30.2,-2.4,30.26,NNW,336,0.0,5.0,24,0.00,,,0.00,WUHU216DAVISVP2,2013-02-12 06:06:00,
2013-02-11 22:11:00,30.7,-1.1,30.26,NNW,336,0.0,5.0,25,0.00,,,0.00,WUHU216DAVISVP2,2013-02-12 06:11:00,
2013-02-11 22:16:00,31.0,-1.7,30.26,NNW,336,1.0,4.0,24,0.00,,,0.00,WUHU216DAVISVP2,2013-02-12 06:16:00,
2013-02-11 22:21:00,30.8,-1.0,30.26,NNW,336,4.0,5.0,25,0.00,,,0.00,WUHU216DAVISVP2,2013-02-12 06:21:00,
2013-02-11 22:26:00,30.4,-1.4,30.26,NNW,336,4.0,5.0,25,0.00,,,0.00,WUHU216DAVISVP2,2013-02-12 06:26:00,
2013-02-11 22:32:00,30.0,-0.1,30.26,NNW,336,3.0,5.0,27,0.00,,,0.00,WUHU216DAVISVP2,2013-02-12 06:32:00,
2013-02-11 22:37:00,29.5,-2.2,30.26,NNW,336,3.0,5.0,25,0.00,,,0.00,WUHU216DAVISVP2,2013-02-12 06:37:00,
2013-02-11 22:42:00,30.5,0.3,30.26,NNW,331,6.0,6.0,27,0.00,,,0.00,WUHU216DAVISVP2,2013-02-12 06:42:00,
2013-02-11 22:47:00,32.1,1.8,30.26,NW,324,7.0,7.0,27,0.00,,,0.00,WUHU216DAVISVP2,2013-02-12 06:47:00,
2013-02-11 22:52:00,32.3,2.6,30.26,NNW,327,5.0,7.0,28,0.00,,,0.00,WUHU216DAVISVP2,2013-02-12 06:52:00,
2013-02-11 22:58:00,32.3,1.9,30.27,NNW,327,5.0,7.0,27,0.00,,,0.00,WUHU216DAVISVP2,2013-02-12 06:58:00,
2013-02-11 23:03:00,32.0,2.4,30.27,NNW,330,4.0,7.0,28,0.00,,,0.00,WUHU216DAVISVP2,2013-02-12 07:03:00,
2013-02-11 23:08:00,31.9,3.0,30.27,NNW,330,4.0,7.0,29,0.00,,,0.00,WUHU216DAVISVP2,2013-02-12 07:08:00,
2013-02-11 23:14:00,31.1,1.6,30.27,NNW,330,2.0,6.0,28,0.00,,,0.00,WUHU216DAVISVP2,2013-02-12 07:14:00,
2013-02-11 23:19:00,30.6,1.9,30.27,NNW,330,4.0,6.0,29,0.00,,,0.00,WUHU216DAVISVP2,2013-02-12 07:19:00,
2013-02-11 23:24:00,30.6,2.6,30.27,NNW,330,4.0,5.0,30,0.00,,,0.00,WUHU216DAVISVP2,2013-02-12 07:24:00,
2013-02-11 23:30:00,30.9,2.1,30.28,NNW,330,4.0,5.0,29,0.00,,,0.00,WUHU216DAVISVP2,2013-02-12 07:30:00,
2013-02-11 23:35:00,30.8,1.3,30.28,NNW,330,4.0,5.0,28,0.00,,,0.00,WUHU216DAVISVP2,2013-02-12 07:35:00,
2013-02-11 23:40:00,30.8,2.1,30.28,NNW,330,4.0,5.0,29,0.00,,,0.00,WUHU216DAVISVP2,2013-02-12 07:40:00,
2013-02-11 23:46:00,30.9,2.1,30.28,NNW,330,4.0,6.0,29,0.00,,,0.00,WUHU216DAVISVP2,2013-02-12 07:46:00,
2013-02-11 23:51:00,31.1,1.6,30.28,NNW,330,2.0,6.0,28,0.00,,,0.00,WUHU216DAVISVP2,2013-02-12 07:51:00,
2013-02-11 23:56:00,29.8,1.2,30.28,NNW,330,2.0,6.0,29,0.00,,,0.00,WUHU216DAVISVP2,2013-02-12 07:56:00,